TOURFACTS.DK  
Stats and Facts from Tour de France.

Tour de France 2018 starts in 200 days
  Riders   Stages   Teams   Summits   Yearly  


 
Search by year

 2017 - St. 21:  14824 starters.
  5132 different riders.
  635 teams.
  2232 stages.
  454 restdays.
  439589.60 km.
  5653 abandonnees.


Top 3
Christopher Froome86:20:55
Rigoberto Uran86:21:49
Romain Bardet86:23:15
Warren Barguil169 pt.
Primoz Roglic80 pt.
Thomas De Gendt64 pt.
Michael Matthews359 pt.
André Greipel234 pt.
Edvald Boasson Hagen220 pt.
Simon Yates86:27:09
Louis Meintjes86:29:15
Emanuel Buchmann86:54:16
Facts from Tour de France 2009
  |   Stages.  |   Stage winners.  |   Days in yellow  |   Average speed.  |   Route.  |   Teams.  |   All riders.  |   Rookies.  |   Withdrawls.  |  

  |   GC.  |   Polka  |   Green  |   White  |   Summits. (In tour)  |   Summits. (Points)  |   Miscellaneous.  |  

Stage 7 on 10 - 07 - 2009
         Owning:    Rinaldo Nocentini    
Pick a stage:  1 2 3 4 5 6 7 8 9 10 11 12 13 14 15 16 17 18 19 20 21
  BarcelonaAndorre-Arcalis | Dist: 224.00 km.
Cat: 4Côte de MontserratFRAChristophe Riblon
3 points
 
Cat: 3Port de SolsonaFRAChristophe Riblon
4 points
 
Cat: 1Serra SecaFRAChristophe Riblon
15 points
 
Cat: 3Port del ComteFRAChristophe Riblon
4 points
 
Cat: HArcalis - OrdinoFRABrice Feillu
40 points
 

Average speed for all riders in stage:  34,701 km./hr.
    Place:Name:Team:Time:Km/h:
FRABrice FeilluFRAAgritubel06:11:31  +  00:00:00=36,176 
FRAChristophe KernFRACofidis Le Credit En Ligne06:11:36  +  00:00:05=36,168 
GERJohannes FröhlingerDEUTeam Milram06:11:56  +  00:00:25=36,136 
4 ITARinaldo NocentiniFRAAg2r La Mondiale06:11:57  +  00:00:26=36,134 
5 ESPEgoi MartínezESPEuskaltel - Euskadi06:12:16  +  00:00:45=36,103 
6 FRAChristophe RiblonFRAAg2r La Mondiale06:12:36  +  00:01:05=36,071 
7 FRAJérôme PineauBELQuick Step06:14:03  +  00:02:32=35,931 
8 ESPJosé Ivan GutierrezESPCaisse d´Epargne06:14:45  +  00:03:14=35,864 
9 ESPAlberto ContadorKAZAstana Pro Team06:14:57  +  00:03:26=35,845 
10 AUSCadel EvansBELSilence-Lotto06:15:18  +  00:03:47=35,811 
11 LUXAndy SchleckDNKTeam Saxo Bank06:15:18  +  00:03:47=35,811 
12 BELBradley WigginsUSAGarmin-Slipstream06:15:18  +  00:03:47=35,811 
13 LUXFränk SchleckDNKTeam Saxo Bank06:15:18  +  00:03:47=35,811 
14 USALevi LeipheimerKAZAstana Pro Team06:15:18  +  00:03:47=35,811 
15 USALance ArmstrongKAZAstana Pro Team06:15:18  +  00:03:47=35,811 
16 GERTony MartinUSATeam Columbia-HTC06:15:18  +  00:03:47=35,811 
17 RUSDenis MenchovNLDRabobank06:15:18  +  00:03:47=35,811 
18 ESPCarlos SastreCHECervelo Test Team06:15:18  +  00:03:47=35,811 
19 RUSVladimir KarpetsRUSTeam Katusha06:15:18  +  00:03:47=35,811 
20 USAChristian VandeveldeUSAGarmin-Slipstream06:15:18  +  00:03:47=35,811 
21 ITAVincenzo NibaliITALiquigas06:15:28  +  00:03:57=35,795 
22 ITAFranco PellizottiITALiquigas06:15:41  +  00:04:10=35,775 
23 BELJurgen Van Den BroeckBELSilence-Lotto06:15:41  +  00:04:10=35,775 
24 GERAndréas KlödenKAZAstana Pro Team06:15:41  +  00:04:10=35,775 
25 FRASandy CasarFRAFrancaise Des Jeux06:15:56  +  00:04:25=35,751 
26 ESPMikel AstarlozaESPEuskaltel - Euskadi06:16:02  +  00:04:31=35,742 
27 ESPJosé Ángel GomezCHECervelo Test Team06:16:02  +  00:04:31=35,742 
28 RUSVladimir EfimkinFRAAg2r La Mondiale06:16:02  +  00:04:31=35,742 
29 ESPJuan Manuel GarateNLDRabobank06:16:02  +  00:04:31=35,742 
30 NEDLaurens ten DamNLDRabobank06:16:02  +  00:04:31=35,742 
31 SVKPeter VelitsDEUTeam Milram06:16:02  +  00:04:31=35,742 
32 ESPLuis León SánchezESPCaisse d´Epargne06:16:02  +  00:04:31=35,742 
33 BELMaxime MonfortUSATeam Columbia-HTC06:16:02  +  00:04:31=35,742 
34 LUXKim KirchenUSATeam Columbia-HTC06:16:10  +  00:04:39=35,729 
35 CZERoman KreuzigerITALiquigas06:16:19  +  00:04:48=35,715 
36 RUSAlexandre BotcharovRUSTeam Katusha06:16:19  +  00:04:48=35,715 
37 FRAChristophe Le MevelFRAFrancaise Des Jeux06:16:19  +  00:04:48=35,715 
38 FRADavid MoncoutiéFRACofidis Le Credit En Ligne06:16:19  +  00:04:48=35,715 
39 FRANicolas RocheFRAAg2r La Mondiale06:16:19  +  00:04:48=35,715 
40 ESPAmets TxurrukaESPEuskaltel - Euskadi06:16:19  +  00:04:48=35,715 
41 GERLinus GerdemannDEUTeam Milram06:16:19  +  00:04:48=35,715 
42 FRAPierre RollandFRABbox Bouygues Telecom06:16:19  +  00:04:48=35,715 
43 COLRigoberto UranESPCaisse d´Epargne06:16:45  +  00:05:14=35,674 
44 FRAChristophe MoreauFRAAgritubel06:16:50  +  00:05:19=35,666 
45 FRAStéphane GoubertFRAAg2r La Mondiale06:17:40  +  00:06:09=35,587 
46 ESPÓscar PereiroESPCaisse d´Epargne06:17:43  +  00:06:12=35,582 
47 ESPHaimar ZubeldiaKAZAstana Pro Team06:17:43  +  00:06:12=35,582 
48 DENChris Anker SørensenDNKTeam Saxo Bank06:17:45  +  00:06:14=35,579 
49 UKRYaroslav PopovychKAZAstana Pro Team06:17:45  +  00:06:14=35,579 
50 USADavid ZabriskieUSAGarmin-Slipstream06:17:45  +  00:06:14=35,579 
51 AUSMatthew LloydBELSilence-Lotto06:17:45  +  00:06:14=35,579 
52 UKRVolodymir GustovCHECervelo Test Team06:18:25  +  00:06:54=35,516 
53 FRARémi PauriolFRACofidis Le Credit En Ligne06:18:25  +  00:06:54=35,516 
54 ESPIgor AntonESPEuskaltel - Euskadi06:18:27  +  00:06:56=35,513 
55 FRALaurent LefèvreFRABbox Bouygues Telecom06:18:40  +  00:07:09=35,493 
56 FRACyril DesselFRAAg2r La Mondiale06:18:40  +  00:07:09=35,493 
57 FRASylvain CalzatiFRAAgritubel06:18:40  +  00:07:09=35,493 
58 BELStijn DevolderBELQuick Step06:18:59  +  00:07:28=35,463 
59 ESPCarlos BarredoBELQuick Step06:18:59  +  00:07:28=35,463 
60 RUSYury TrofimovFRABbox Bouygues Telecom06:18:59  +  00:07:28=35,463 
61 USAGeorge HincapieUSATeam Columbia-HTC06:18:59  +  00:07:28=35,463 
62 GERChristian KneesDEUTeam Milram06:18:59  +  00:07:28=35,463 
63 FINJussi VeikkanenFRAFrancaise Des Jeux06:18:59  +  00:07:28=35,463 
64 FRANicolas VogondyFRAAgritubel06:18:59  +  00:07:28=35,463 
65 SLOSimon SpilakITALampre-N.G.C06:20:34  +  00:09:03=35,316 
66 SWEGustav LarssonDNKTeam Saxo Bank06:20:47  +  00:09:16=35,296 
67 SUIFabian CancellaraDNKTeam Saxo Bank06:20:47  +  00:09:16=35,296 
68 NEDMartijn MaaskantUSAGarmin-Slipstream06:20:47  +  00:09:16=35,296 
69 ESPDavid ArroyoESPCaisse d´Epargne06:21:31  +  00:10:00=35,228 
70 RUSSerguei IvanovRUSTeam Katusha06:21:52  +  00:10:21=35,196 
71 GERMarkus FothenDEUTeam Milram06:21:52  +  00:10:21=35,196 
72 DENNicki SørensenDNKTeam Saxo Bank06:21:52  +  00:10:21=35,196 
73 FINCharles WegeliusBELSilence-Lotto06:21:52  +  00:10:21=35,196 
74 FRASylvain ChavanelBELQuick Step06:21:52  +  00:10:21=35,196 
75 FRAJérôme CoppelFRAFrancaise Des Jeux06:21:52  +  00:10:21=35,196 
76 ITAMarzio BruseghinITALampre-N.G.C06:22:34  +  00:11:03=35,131 
77 BLRAliaksandr KuchynskiITALiquigas06:22:34  +  00:11:03=35,131 
78 CANRyder HesjedalUSAGarmin-Slipstream06:22:34  +  00:11:03=35,131 
79 ESPJose Luis ArrietaFRAAg2r La Mondiale06:23:49  +  00:12:18=35,017 
80 ESPIñigo CuestaCHECervelo Test Team06:23:49  +  00:12:18=35,017 
81 FRASébastien MinardFRACofidis Le Credit En Ligne06:23:49  +  00:12:18=35,017 
82 GERGrischa NiermannNLDRabobank06:23:49  +  00:12:18=35,017 
83 FRAHubert DupontFRAAg2r La Mondiale06:23:49  +  00:12:18=35,017 
84 FRAGeoffroy LequatreFRAAgritubel06:23:49  +  00:12:18=35,017 
85 NORKurt Asle ArvesenDNKTeam Saxo Bank06:23:49  +  00:12:18=35,017 
86 GERJens VoigtDNKTeam Saxo Bank06:23:49  +  00:12:18=35,017 
87 AUSHeinrich HausslerCHECervelo Test Team06:23:49  +  00:12:18=35,017 
88 ESPJuan José OrozESPEuskaltel - Euskadi06:23:49  +  00:12:18=35,017 
89 FRAJérémy RoyFRAFrancaise Des Jeux06:23:49  +  00:12:18=35,017 
90 PORSergio PaulinhoKAZAstana Pro Team06:23:49  +  00:12:18=35,017 
91 SUIDavid LoosliITALampre-N.G.C06:24:30  +  00:12:59=34,954 
92 GERSebastian LangBELSilence-Lotto06:25:54  +  00:14:23=34,828 
93 ESPGorka VerdugoESPEuskaltel - Euskadi06:26:58  +  00:15:27=34,732 
94 ITAFilippo PozzatoRUSTeam Katusha06:29:26  +  00:17:55=34,512 
95 ARGJuan Antonio FlechaNLDRabobank06:29:26  +  00:17:55=34,512 
96 ESPJoan HorrachRUSTeam Katusha06:29:26  +  00:17:55=34,512 
97 FRAMaxime BouetFRAAgritubel06:29:26  +  00:17:55=34,512 
98 NEDJoost PosthumaNLDRabobank06:29:26  +  00:17:55=34,512 
99 FRAThierry HupondNLDSkil-Shimano06:29:26  +  00:17:55=34,512 
100 ESPRuben PerezESPEuskaltel - Euskadi06:29:26  +  00:17:55=34,512 
101 ESPAlan PerezESPEuskaltel - Euskadi06:29:26  +  00:17:55=34,512 
102 FRALloyd MondoryFRAAg2r La Mondiale06:29:26  +  00:17:55=34,512 
103 FRAThomas VoecklerFRABbox Bouygues Telecom06:29:30  +  00:17:59=34,506 
104 ITAMatteo TosattoBELQuick Step06:31:49  +  00:20:18=34,302 
105 BELGreg Van AvermaetBELSilence-Lotto06:31:56  +  00:20:25=34,292 
106 FRAArnaud CoyotESPCaisse d´Epargne06:34:54  +  00:23:23=34,034 
107 NEDStef ClementNLDRabobank06:34:54  +  00:23:23=34,034 
108 JPNFumiyuki BeppuNLDSkil-Shimano06:34:54  +  00:23:23=34,034 
109 FRAPierrick FédrigoFRABbox Bouygues Telecom06:34:54  +  00:23:23=34,034 
110 ESPLuis RodriguezESPCaisse d´Epargne06:34:54  +  00:23:23=34,034 
111 NEDKoen De KortNLDSkil-Shimano06:34:54  +  00:23:23=34,034 
112 FRADavid Le LayFRAAgritubel06:34:54  +  00:23:23=34,034 
113 AUTPeter WrolichDEUTeam Milram06:34:54  +  00:23:23=34,034 
114 GERSimon GeschkeNLDSkil-Shimano06:34:54  +  00:23:23=34,034 
115 FRAAlexandre PichotFRABbox Bouygues Telecom06:34:54  +  00:23:23=34,034 
116 PORRui CostaESPCaisse d´Epargne06:34:54  +  00:23:23=34,034 
117 BELStijn VandenberghRUSTeam Katusha06:34:54  +  00:23:23=34,034 
118 BELJohan VansummerenBELSilence-Lotto06:34:54  +  00:23:23=34,034 
119 FRAAnthony GeslinFRAFrancaise Des Jeux06:34:54  +  00:23:23=34,034 
120 ITAAlessandro VanottiITALiquigas06:34:54  +  00:23:23=34,034 
121 COLLeonardo DuqueFRACofidis Le Credit En Ligne06:34:54  +  00:23:23=34,034 
122 FRABenoit VaugrenardFRAFrancaise Des Jeux06:34:54  +  00:23:23=34,034 
123 BELFrederik WillemsITALiquigas06:34:54  +  00:23:23=34,034 
124 ITADaniele BennatiITALiquigas06:34:54  +  00:23:23=34,034 
125 BELSébastien RosselerBELQuick Step06:34:54  +  00:23:23=34,034 
126 ESPJosé Joaquin RojasESPCaisse d´Epargne06:40:00  +  00:28:29=33,600 
127 FRARomain FeilluFRAAgritubel06:40:00  +  00:28:29=33,600 
128 AUTBernhard EiselUSATeam Columbia-HTC06:40:00  +  00:28:29=33,600 
129 GERBert GrabschUSATeam Columbia-HTC06:40:00  +  00:28:29=33,600 
130 ITAFabio SabatiniITALiquigas06:40:00  +  00:28:29=33,600 
131 NZLHayden RoulstonCHECervelo Test Team06:40:00  +  00:28:29=33,600 
132 NEDNiki TerpstraDEUTeam Milram06:40:00  +  00:28:29=33,600 
133 BELStaf ScheirlinckxBELSilence-Lotto06:40:00  +  00:28:29=33,600 
134 NEDSteven de JonghBELQuick Step06:40:00  +  00:28:29=33,600 
135 NEDKenny van HummelNLDSkil-Shimano06:40:00  +  00:28:29=33,600 
136 AUSStuart O'GradyDNKTeam Saxo Bank06:40:00  +  00:28:29=33,600 
137 IOMMark CavendishUSATeam Columbia-HTC06:40:00  +  00:28:29=33,600 
138 NEDAlbert TimmerNLDSkil-Shimano06:40:00  +  00:28:29=33,600 
139 AUSMark RenshawUSATeam Columbia-HTC06:40:00  +  00:28:29=33,600 
140 RUSMikhail IgnatyevRUSTeam Katusha06:40:00  +  00:28:29=33,600 
141 BELTom BoonenBELQuick Step06:40:00  +  00:28:29=33,600 
142 ITAAlessandro BallanITALampre-N.G.C06:40:00  +  00:28:29=33,600 
143 FRAWilliam BonnetFRABbox Bouygues Telecom06:40:00  +  00:28:29=33,600 
144 RUSNikolai TrusovRUSTeam Katusha06:40:00  +  00:28:29=33,600 
145 ITAMarco BandieraITALampre-N.G.C06:40:00  +  00:28:29=33,600 
146 AUSMichael RogersUSATeam Columbia-HTC06:40:00  +  00:28:29=33,600 
147 ITAMauro SantambrogioITALampre-N.G.C06:40:00  +  00:28:29=33,600 
148 GERFabian WegmannDEUTeam Milram06:40:00  +  00:28:29=33,600 
149 ESPKoldo FernándezESPEuskaltel - Euskadi06:40:00  +  00:28:29=33,600 
150 KAZDmitriy MuravyevKAZAstana Pro Team06:40:00  +  00:28:29=33,600 
151 FRAStéphane AugeFRACofidis Le Credit En Ligne06:40:00  +  00:28:29=33,600 
152 USADanny PateUSAGarmin-Slipstream06:40:00  +  00:28:29=33,600 
153 FRAJonathan HivertNLDSkil-Shimano06:40:00  +  00:28:29=33,600 
154 POLMarcin SapaITALampre-N.G.C06:40:00  +  00:28:29=33,600 
155 USATyler FarrarUSAGarmin-Slipstream06:40:00  +  00:28:29=33,600 
156 NZLJulian DeanUSAGarmin-Slipstream06:40:00  +  00:28:29=33,600 
157 AUSBrett LancasterCHECervelo Test Team06:40:00  +  00:28:29=33,600 
158 SUIGregory RastKAZAstana Pro Team06:40:00  +  00:28:29=33,600 
159 BLRYauheni HutarovichFRAFrancaise Des Jeux06:40:00  +  00:28:29=33,600 
160 DENBrian VandborgITALiquigas06:40:00  +  00:28:29=33,600 
161 ITADaniele RighiITALampre-N.G.C06:40:00  +  00:28:29=33,600 
162 GERGerald CiolekDEUTeam Milram06:40:00  +  00:28:29=33,600 
163 MLTDavid MillarUSAGarmin-Slipstream06:40:00  +  00:28:29=33,600 
164 FRASamuel DumoulinFRACofidis Le Credit En Ligne06:40:00  +  00:28:29=33,600 
165 ESPOscar FreireNLDRabobank06:40:00  +  00:28:29=33,600 
166 GERAndreas KlierCHECervelo Test Team06:40:00  +  00:28:29=33,600 
167 FRAAmaël MoinardFRACofidis Le Credit En Ligne06:40:00  +  00:28:29=33,600 
168 FRACyril LemoineNLDSkil-Shimano06:40:00  +  00:28:29=33,600 
169 ESPBingen FernandezFRACofidis Le Credit En Ligne06:40:00  +  00:28:29=33,600 
170 FRAMickael DelageBELSilence-Lotto06:40:00  +  00:28:29=33,600 
171 NORThor HushovdCHECervelo Test Team06:40:00  +  00:28:29=33,600 
172 FRASaid HaddouFRABbox Bouygues Telecom06:40:00  +  00:28:29=33,600 
173 ITADanilo NapolitanoRUSTeam Katusha06:40:00  +  00:28:29=33,600 
174 JPNYukiya ArashiroFRABbox Bouygues Telecom06:40:00  +  00:28:29=33,600 
175 ESPEduardo GonzaloFRAAgritubel06:41:22  +  00:29:51=33,486 
176 ITAAngelo FurlanITALampre-N.G.C06:43:28  +  00:31:57=33,311 

Withdrawls: 1
 
Rider
Team
Reason
46  NEDRobert GesinkNLDRabobankDid not start

Todays birthdays.

1883  Cyrille Van Hauwaert
1885  Pierino Albini
1889  Joseph Vandaele
1891  Antoine Rière
1892  Charles Arnulf
1895  Giuseppe Ruffoni
1905  Edmond Berenger
1905  Leon Chene
1905  Paul Le Drogo
1923  Georges Gilles
1935  Jean Anastasi
1938  Tommaso De Pra
1944  Bernard Vifian
1949  Paul Aerts
1950  Roy Schuiten
1962  Antonio Castro
1962  Charly Mottet
1964  Roberto Conti
1964  Denis Leproux
1970  Jo Planckaert